Weather History for KCOD - September, 2013

Change the Weather History Date:

Sunday, September 1, 2013

  Actual Average Record
Temperature  
Mean Temperature 69 °F -  
Max Temperature 87 °F 78 °F 96 °F (1940)
Min Temperature 51 °F 50 °F 32 °F (1924)
Cooling Degree Days 4    
Growing Degree Days 19 (Base 50)    
Moisture  
Dew Point 38 °F    
Average Humidity 36    
Maximum Humidity 71    
Minimum Humidity 14    
Precipitation  
Precipitation 0.00 in - - ()
Sea Level Pressure  
Sea Level Pressure 30.14 in    
Wind  
Wind Speed 5 mph (SSE)    
Max Wind Speed 14 mph    
Max Gust Speed -    
Visibility 9 miles    
Events      
Averages and records for this station are not official NWS values.
T = Trace of Precipitation, MM = Missing Value Source: NWS Daily Summary

Daily Weather History Graph

Daily Weather History Graph

Search for Another Location

Airport or City:

Trip Planner

Search our weather history database for the weather conditions in past years. The results will help you decide how hot, cold, wet, or windy it might be!

Date:

Astronomy

Sep. 01, 2013 Rise Set
Actual Time 6:39 AM MDT 7:52 PM MDT
Civil Twilight 6:09 AM MDT 8:21 PM MDT
Nautical Twilight 5:32 AM MDT 8:57 PM MDT
Astronomical Twilight 4:54 AM MDT 9:35 PM MDT
Moon 2:58 AM MDT (9/1) 5:36 PM MDT (9/1)
Length of Visible Light 14h 12m
Length of Day
13h 12m
Waning Crescent, 13% of the Moon is Illuminated
Sep 1
Waning Crescent
Sep 5
New
Sep 12
First Quarter
Sep 19
Full
Sep 26
Last Quarter

Hourly Weather History & Observations

Time (MDT) Temp. Dew Point Humidity Pressure Visibility Wind Dir Wind Speed Gust Speed Precip Events Conditions
12:15 AM 60.8 °F 39.2 °F 45% 30.19 in 10.0 mi South 5.8 mph - N/A   Clear
12:55 AM 60.8 °F 44.6 °F 55% 30.19 in 10.0 mi SW 5.8 mph - N/A   Clear
1:15 AM 60.8 °F 42.8 °F 52% 30.19 in 10.0 mi SSW 4.6 mph - N/A   Clear
1:35 AM 60.8 °F 42.8 °F 52% 30.19 in 10.0 mi SW 6.9 mph - N/A   Clear
1:55 AM 60.8 °F 41.0 °F 48% 30.19 in 10.0 mi SW 8.1 mph - N/A   Clear
2:15 AM 60.8 °F 41.0 °F 48% 30.19 in 10.0 mi Calm Calm - N/A   Clear
2:35 AM 60.8 °F 42.8 °F 52% 30.19 in 10.0 mi West 3.5 mph - N/A   Clear
2:55 AM 59.0 °F 42.8 °F 55% 30.19 in 10.0 mi SW 3.5 mph - N/A   Clear
3:35 AM 55.4 °F 39.2 °F 54% 30.18 in 10.0 mi SSW 3.5 mph - N/A   Clear
3:55 AM 57.2 °F 41.0 °F 55% 30.18 in 10.0 mi SSW 4.6 mph - N/A   Clear
4:15 AM 55.4 °F 41.0 °F 58% 30.18 in 10.0 mi South 4.6 mph - N/A   Clear
4:35 AM 55.4 °F 41.0 °F 58% 30.19 in 10.0 mi SSW 5.8 mph - N/A   Clear
4:55 AM 55.4 °F 41.0 °F 58% 30.19 in 10.0 mi Calm Calm - N/A   Clear
5:15 AM 51.8 °F 39.2 °F 62% 30.19 in 10.0 mi Calm Calm - N/A   Clear
5:35 AM 51.8 °F 42.8 °F 71% 30.19 in 10.0 mi Calm Calm - N/A   Clear
5:55 AM 51.8 °F 41.0 °F 67% 30.19 in 10.0 mi Calm Calm - N/A   Clear
6:15 AM 53.6 °F 41.0 °F 62% 30.19 in 10.0 mi Calm Calm - N/A   Clear
6:35 AM 51.8 °F 41.0 °F 67% 30.19 in 10.0 mi Calm Calm - N/A   Clear
6:55 AM 51.8 °F 41.0 °F 67% 30.19 in 10.0 mi Calm Calm - N/A   Clear
7:15 AM 53.6 °F 41.0 °F 62% 30.19 in 10.0 mi Calm Calm - N/A   Clear
7:35 AM 53.6 °F 41.0 °F 62% 30.19 in 10.0 mi Calm Calm - N/A   Clear
8:15 AM 57.2 °F 44.6 °F 63% 30.19 in 10.0 mi South 3.5 mph - N/A   Partly Cloudy
8:55 AM 64.4 °F 42.8 °F 45% 30.19 in 10.0 mi SSE 5.8 mph - N/A   Clear
9:15 AM 66.2 °F 42.8 °F 43% 30.19 in 10.0 mi Calm Calm - N/A   Clear
9:35 AM 68.0 °F 44.6 °F 43% 30.19 in 10.0 mi WSW 8.1 mph - N/A   Clear
9:55 AM 69.8 °F 42.8 °F 38% 30.19 in 10.0 mi SW 13.8 mph - N/A   Clear
10:15 AM 71.6 °F 42.8 °F 35% 30.18 in 10.0 mi SW 6.9 mph - N/A   Clear
10:35 AM 73.4 °F 42.8 °F 33% 30.18 in 10.0 mi SSW 8.1 mph - N/A   Clear
10:55 AM 75.2 °F 42.8 °F 31% 30.17 in 10.0 mi SSE 8.1 mph - N/A   Clear
11:15 AM 75.2 °F 42.8 °F 31% 30.17 in 10.0 mi ESE 6.9 mph - N/A   Clear
11:55 AM 78.8 °F 42.8 °F 28% 30.16 in 10.0 mi ESE 8.1 mph - N/A   Clear
12:15 PM 78.8 °F 42.8 °F 28% 30.16 in 10.0 mi East 6.9 mph - N/A   Clear
12:35 PM 80.6 °F 42.8 °F 26% 30.15 in 4.0 mi East 9.2 mph - N/A   Clear
12:55 PM 80.6 °F 42.8 °F 26% 30.15 in 5.0 mi East 8.1 mph - N/A   Clear
1:35 PM 84.2 °F 39.2 °F 20% 30.13 in 2.0 mi East 8.1 mph - N/A   Clear
1:55 PM 84.2 °F 39.2 °F 20% 30.12 in 2.0 mi ESE 6.9 mph - N/A   Clear
2:15 PM 86.0 °F 39.2 °F 19% 30.11 in 5.0 mi ESE 8.1 mph - N/A   Clear
2:55 PM 87.8 °F 35.6 °F 16% 30.09 in 1.8 mi ESE 10.4 mph - N/A   Clear
3:15 PM 87.8 °F 33.8 °F 15% 30.09 in 8.0 mi East 6.9 mph - N/A   Clear
3:55 PM 87.8 °F 33.8 °F 15% 30.08 in 10.0 mi SE 10.4 mph - N/A   Clear
4:15 PM 87.8 °F 33.8 °F 15% 30.08 in 10.0 mi ESE 9.2 mph - N/A   Clear
4:35 PM 87.8 °F 33.8 °F 15% 30.08 in 10.0 mi ESE 10.4 mph - N/A   Clear
4:55 PM 87.8 °F 33.8 °F 15% 30.07 in 10.0 mi ESE 11.5 mph - N/A   Clear
5:15 PM 87.8 °F 33.8 °F 15% 30.07 in 10.0 mi ESE 8.1 mph - N/A   Clear
5:55 PM 87.8 °F 33.8 °F 15% 30.07 in 10.0 mi ESE 10.4 mph - N/A   Clear
6:15 PM 86.0 °F 33.8 °F 15% 30.07 in 10.0 mi ESE 8.1 mph - N/A   Clear
6:35 PM 86.0 °F 33.8 °F 15% 30.07 in 10.0 mi ESE 10.4 mph - N/A   Clear
6:55 PM 84.2 °F 33.8 °F 16% 30.07 in 10.0 mi ESE 9.2 mph - N/A   Clear
7:15 PM 82.4 °F 30.2 °F 15% 30.07 in 10.0 mi East 9.2 mph - N/A   Clear
7:35 PM 82.4 °F 30.2 °F 15% 30.07 in 10.0 mi ESE 9.2 mph - N/A   Clear
7:55 PM 82.4 °F 28.4 °F 14% 30.08 in 10.0 mi East 8.1 mph - N/A   Clear
8:15 PM 80.6 °F 28.4 °F 15% 30.08 in 10.0 mi East 8.1 mph - N/A   Clear
8:35 PM 77.0 °F 28.4 °F 17% 30.09 in 10.0 mi Calm Calm - N/A   Clear
8:55 PM 71.6 °F 35.6 °F 27% 30.09 in 10.0 mi Calm Calm - N/A   Clear
9:15 PM 73.4 °F 35.6 °F 25% 30.10 in 10.0 mi Calm Calm - N/A   Clear
9:35 PM 69.8 °F 35.6 °F 28% 30.10 in 10.0 mi Calm Calm - N/A   Clear
10:15 PM 69.8 °F 33.8 °F 27% 30.10 in 10.0 mi Calm Calm - N/A   Clear
10:35 PM 69.8 °F 32.0 °F 25% 30.11 in 10.0 mi South 3.5 mph - N/A   Clear
10:55 PM 64.4 °F 33.8 °F 32% 30.11 in 10.0 mi SSE 4.6 mph - N/A   Clear
11:15 PM 62.6 °F 32.0 °F 32% 30.10 in 10.0 mi South 5.8 mph - N/A   Clear
11:35 PM 62.6 °F 30.2 °F 30% 30.10 in 10.0 mi South 6.9 mph - N/A   Clear
11:55 PM 60.8 °F 30.2 °F 31% 30.10 in 10.0 mi South 4.6 mph - N/A   Clear